Location: Jetmore Oil Field
(38.1181°N, 99.9337°W)
Time: 18:33:08
(UTC+00:00)

BREEZE-M DEB (TANK) - Pass Details

Date: 17 February 2020
Orbit: 324 x 16736 km, 49.4° (Epoch: 31 March)

Event Time Altitude Azimuth Distance (km) Brightness Sun altitude
Rises 01:03:10 0° 300° (WNW) 8,211 9.7 -9.3°
Reaches altitude 10° 01:11:06 10° 304° (NW) 5,056 8.5 -10.9°
Maximum altitude 01:21:05 60° 24° (NNE) 902 3.7 -12.8°
Enters shadow 01:23:22 20° 99° (E) 1,292 4.1 -13.3°
